Lid_Strength_Index
9 10 11 10 9 11 10 12 12 12 11 10 10 10 9 8 8 8 7 7 6 6 5 6 6 5 5 4 1 1 1 0 1 1 1 1 1 0 0 -0 0 1 2 2
10 12 10 11 11 11 11 12 12 12 11 11 11 11 9 8 8 7 7 7 6 7 6 7 7 6 6 6 5 2 1 0 0 1 1 0 1 0 0 -0 0 1 2 2
11 11 10 11 12 12 12 12 12 12 12 12 12 11 11 10 10 9 9 8 8 8 8 8 6 6 6 6 6 5 3 0 0 0 0 0 0 0 1 1 0 0 1 3
11 11 11 11 12 11 13 11 12 12 12 14 13 15 11 11 10 10 9 9 8 8 7 7 6 6 5 5 5 6 4 1 0 -0 1 1 2 2 1 1 0 -0 -0 1
11 12 12 12 11 11 12 11 11 12 12 13 13 14 12 13 11 10 9 8 7 8 8 7 7 7 6 5 4 3 6 4 1 0 0 1 1 1 0 1 1 0 0 0
11 10 10 11 11 11 11 11 12 12 12 16 13 13 13 12 11 11 10 8 8 8 8 7 7 6 6 5 4 2 3 5 4 0 0 1 1 1 1 1 1 1 0 0
11 11 10 10 11 11 11 11 15 15 16 17 16 15 13 11 12 10 10 8 8 8 7 7 7 7 6 6 5 5 2 2 1 1 1 1 1 1 1 1 1 1 2 3
14 15 11 10 10 12 12 11 14 18 18 16 16 16 13 11 10 10 9 8 8 8 8 8 7 7 7 6 6 5 5 3 2 1 1 1 1 1 1 2 2 2 3 3
14 15 11 11 10 9 12 13 12 16 19 15 14 13 11 11 11 9 9 8 9 8 8 8 7 7 6 6 6 5 5 5 4 3 3 3 3 3 4 4 4 4 3 4
12 16 13 12 10 11 11 10 14 13 17 17 16 16 13 12 11 9 9 9 9 9 8 8 8 8 7 7 6 6 5 6 5 5 4 4 4 4 3 3 3 3 3 3
11 12 15 13 12 12 13 13 13 12 13 17 17 14 11 11 10 9 9 8 9 8 8 8 8 8 8 7 7 7 7 6 6 6 5 5 5 5 5 5 5 5 4 4
10 11 14 14 13 12 11 12 12 14 16 15 15 14 11 11 9 8 8 9 8 8 8 8 8 8 8 9 8 8 8 8 7 7 8 8 7 7 7 7 7 7 6 6
10 12 16 14 13 12 13 12 12 12 13 15 15 14 11 11 10 8 9 9 9 9 9 9 9 9 9 9 9 9 9 9 9 9 9 9 9 9 9 9 9 9 8 8
9 12 13 15 14 12 13 14 13 12 14 14 14 12 11 10 10 9 8 8 8 9 9 9 9 9 9 9 9 9 9 9 9 9 10 10 10 10 10 10 10 10 10 10
10 13 13 12 12 11 12 12 12 13 12 13 13 12 11 9 9 8 8 8 9 10 10 9 9 9 9 9 9 10 10 10 10 10 10 11 10 11 11 11 11 11 11 11
10 14 14 15 13 13 14 13 12 12 12 12 12 12 11 9 7 8 8 9 10 10 9 9 10 10 10 10 10 10 10 11 10 11 11 11 11 12 12 12 12 12 12 12
12 14 14 15 14 14 15 14 13 12 11 11 13 11 10 11 9 9 9 9 10 10 10 10 10 10 11 11 11 11 11 11 11 12 12 13 13 13 13 13 13 13 12 12
13 13 14 16 15 20 13 12 11 12 11 11 11 11 10 10 9 8 8 9 10 10 11 11 10 10 11 11 12 12 12 12 12 13 13 13 14 14 13 14 14 13 13 13
10 12 15 17 17 14 12 14 13 13 13 10 11 10 11 11 10 12 10 9 10 10 10 10 10 11 12 12 12 13 13 13 13 14 14 14 14 15 14 14 14 13 13 13
11 11 14 15 18 19 14 14 11 10 14 11 10 10 11 11 12 11 12 12 12 12 11 12 12 13 13 14 13 14 14 14 14 15 15 14 14 15 15 14 14 14 14 14
14 14 15 15 16 14 12 13 11 15 13 14 12 10 11 11 10 12 12 13 12 12 13 13 14 14 14 15 15 15 15 16 16 16 16 15 15 16 15 15 14 15 14 14
14 15 15 14 16 18 13 12 13 12 14 13 13 11 12 13 13 12 13 14 14 14 15 14 15 16 16 17 16 17 17 18 17 18 18 18 17 16 15 15 15 14 14 14
14 12 13 12 13 12 13 12 11 12 12 13 13 12 13 13 14 13 13 13 14 15 16 17 16 17 18 18 19 19 19 19 20 21 21 19 17 16 15 15 13 13 13 14
14 13 13 12 12 13 13 13 12 13 13 13 13 13 13 14 13 14 14 14 15 16 17 18 17 18 19 20 20 21 20 21 23 22 20 18 17 16 16 14 14 13 12 12
12 12 14 14 14 14 13 13 12 13 13 14 14 13 13 13 14 14 15 15 16 18 19 19 19 20 20 21 21 21 22 23 22 22 20 19 17 17 16 15 14 13 12 11
12 13 12 11 10 10 11 12 12 13 14 13 14 14 14 13 14 15 16 17 18 19 19 19 20 21 22 22 22 23 24 24 25 22 20 19 19 17 17 16 15 13 12 11